Wind_Speed
24 25 25 25 26 28 28 28 27 27 28 30 31 29 26 27 28 27 25 24 23 22 21 21 22 21 20 20 19 17 16 16 18 10 12 27 34 25 15 9 8 17 21 14 11 12 11 11 13 15 11 7 5 5 8 9 6 4 3 4 5 4 4 4 2 5 5 4 5 5 6 9 5 10 10 8 11 13 12 8 7 8 11 15 22 31 33 34
27 27 27 27 28 29 30 31 31 31 32 33 33 30 28 29 29 27 25 24 23 22 22 22 22 20 18 17 16 13 14 17 16 15 25 34 33 28 25 22 15 14 23 24 18 16 11 9 11 11 7 4 5 6 7 6 7 6 4 4 6 5 5 4 4 8 7 5 8 8 8 10 10 13 11 11 12 12 11 10 11 13 14 17 25 32 31 33
29 28 28 29 29 31 33 35 34 34 35 35 33 32 30 31 30 28 26 24 22 22 22 22 22 19 16 15 12 9 11 14 10 16 23 21 25 31 28 27 24 19 21 27 26 21 16 13 14 10 5 5 5 6 6 5 5 6 4 4 7 8 6 5 4 8 9 9 11 10 10 12 13 11 9 11 14 12 11 12 14 15 17 19 21 27 31 30
29 29 31 33 34 35 36 36 35 35 36 35 33 32 32 32 30 28 26 24 23 22 22 22 21 18 14 11 7 5 7 7 5 11 10 7 10 19 26 29 28 25 20 23 26 23 19 14 12 9 6 5 5 5 7 6 5 4 6 8 8 6 5 8 6 6 9 11 11 11 12 13 12 10 9 12 13 9 11 15 16 19 22 22 20 24 28 27
31 33 35 36 37 37 37 38 37 37 37 36 35 34 34 33 31 28 25 24 23 22 23 22 19 15 12 8 2 2 2 2 4 5 3 8 7 10 21 30 29 29 23 20 23 21 16 10 9 8 5 5 5 5 8 10 7 4 8 11 10 5 4 9 5 6 7 8 8 9 10 9 8 8 10 15 12 8 11 15 18 21 22 24 24 24 24 23
35 36 37 37 38 38 39 39 39 38 38 37 37 36 35 34 31 28 26 24 24 24 22 20 17 13 9 4 2 1 0 2 6 5 1 11 7 7 20 29 30 29 26 21 20 18 12 8 8 8 6 5 8 8 9 10 9 6 7 10 11 9 7 6 6 9 7 6 7 8 7 7 7 6 10 15 11 8 13 17 20 21 22 26 25 23 23 21
37 38 38 39 39 40 40 40 40 39 38 38 37 38 37 35 31 29 27 24 25 25 21 17 13 10 5 3 3 1 1 8 15 10 7 8 12 4 22 31 30 29 27 22 16 13 11 9 9 8 7 6 8 11 10 9 11 10 9 9 10 11 10 6 7 9 8 7 6 5 4 8 10 7 9 13 7 9 16 19 21 21 23 25 23 21 22 21
38 39 39 40 40 41 42 41 41 40 39 38 38 39 37 35 31 30 28 26 27 25 19 13 10 8 1 4 2 1 2 13 19 10 10 16 14 5 24 31 30 30 28 24 19 14 11 11 11 8 8 8 7 10 10 9 10 11 12 12 9 9 12 9 7 9 10 8 5 7 4 9 10 6 8 11 8 13 18 20 20 20 22 22 21 21 20 19
38 39 39 40 41 41 42 42 42 41 40 39 39 39 37 34 32 31 30 30 29 22 16 10 7 5 2 4 1 3 6 11 11 10 10 12 6 11 26 30 31 31 25 23 21 16 11 11 13 9 7 9 9 9 10 9 7 10 13 13 10 9 11 11 9 10 10 8 8 11 7 10 8 6 6 7 10 17 19 20 21 21 22 20 20 21 19 19
38 38 39 39 40 40 41 41 41 41 40 39 39 39 37 34 31 31 32 32 26 18 12 5 3 1 4 3 2 2 6 1 10 10 4 7 7 17 28 31 34 31 21 19 19 16 12 10 12 10 7 7 9 10 10 9 6 8 12 13 13 11 10 10 10 11 9 7 10 12 9 10 8 7 4 4 12 19 19 20 21 21 21 20 19 19 19 19
37 38 39 39 40 40 40 40 40 40 40 39 38 37 35 33 32 32 33 30 21 14 8 3 2 3 6 1 3 6 6 3 7 15 7 6 13 21 28 33 36 32 21 16 17 21 18 13 11 7 6 5 8 9 10 11 9 9 11 11 13 12 10 10 10 10 8 6 9 11 12 11 7 5 6 7 15 20 20 20 20 20 18 19 19 18 15 16
38 38 39 39 40 40 39 39 40 39 39 38 36 35 34 33 32 33 32 25 16 10 5 2 2 5 5 0 7 14 8 5 6 17 14 7 13 19 25 33 37 35 27 15 17 25 23 21 14 7 6 5 5 5 7 11 10 11 11 9 11 10 9 11 11 10 8 6 8 9 8 10 9 6 7 10 17 20 20 20 20 19 17 16 17 15 12 16
39 40 39 40 40 40 39 39 39 39 37 36 35 34 33 33 32 32 29 20 11 6 2 2 4 6 5 1 13 23 18 16 21 24 16 9 11 15 20 31 36 37 34 24 22 28 28 25 15 8 8 5 4 4 5 7 7 10 10 7 8 7 7 11 11 11 10 8 9 11 4 7 11 8 8 11 16 19 18 18 18 16 15 15 15 14 12 15
41 41 41 41 41 40 40 39 39 39 35 34 33 32 33 33 30 28 24 15 7 3 1 3 6 8 5 7 18 23 23 25 27 25 18 11 11 12 16 26 32 32 33 28 25 26 28 23 12 7 8 7 6 6 7 6 4 5 6 5 5 5 5 9 13 11 11 9 11 12 5 5 10 9 11 13 16 20 18 18 17 15 15 13 14 14 13 14
42 43 43 42 41 41 41 39 39 38 33 32 33 32 33 30 25 23 19 10 3 1 1 5 9 6 2 11 18 17 15 15 22 26 21 15 9 9 15 22 27 29 29 27 23 20 22 18 9 6 7 8 9 8 7 4 3 3 4 4 4 5 4 7 13 14 12 9 11 13 5 5 10 12 16 15 17 20 18 18 18 16 16 15 13 14 14 13
43 44 44 43 42 42 41 40 38 36 32 31 32 32 30 24 20 20 13 5 4 1 3 6 10 7 2 7 10 10 6 6 12 15 14 17 15 12 19 23 23 25 25 25 23 17 16 12 6 7 7 8 9 7 5 4 4 3 4 4 4 5 4 5 8 13 15 10 10 13 5 4 9 13 17 17 19 20 18 18 19 17 17 16 13 13 14 13
44 45 44 44 43 42 41 39 37 34 32 31 32 30 24 19 19 16 6 4 6 1 4 4 7 7 5 10 10 9 5 5 11 11 9 16 22 18 16 17 14 17 18 19 20 14 11 8 5 6 7 7 6 5 4 7 7 4 3 4 5 5 5 4 4 8 14 12 10 13 8 5 8 14 17 18 21 20 18 19 19 17 16 16 14 13 14 14
45 45 45 45 43 42 40 38 35 32 31 31 29 26 19 18 19 10 3 4 7 2 3 2 4 3 4 7 6 8 10 14 19 20 17 14 22 24 17 12 11 14 12 9 12 10 7 5 4 5 6 7 7 7 8 8 6 5 4 3 5 5 5 6 6 6 9 11 11 11 10 7 10 17 18 19 22 21 19 20 19 18 17 16 15 14 15 15
45 45 46 45 43 42 39 38 33 28 29 28 26 22 15 16 14 3 4 5 7 3 4 4 4 3 8 8 8 15 20 21 24 24 19 12 18 23 18 13 11 12 10 6 8 10 6 4 5 7 8 10 11 10 9 6 4 6 5 4 5 5 5 6 7 8 8 8 10 11 12 10 11 20 22 21 21 20 19 19 16 17 17 16 15 14 15 16
45 45 46 45 43 41 39 37 30 25 27 27 26 20 12 13 9 1 2 6 8 9 13 13 9 9 15 14 17 23 24 19 15 13 15 13 12 16 11 9 9 10 10 8 8 8 7 6 8 11 11 11 12 11 8 5 6 7 6 6 7 7 7 7 9 12 9 7 9 13 14 12 12 19 23 23 22 20 19 19 16 16 16 16 17 17 17 17
45 46 46 44 42 39 37 34 26 23 26 26 23 13 6 10 8 7 11 9 11 14 17 20 17 17 20 18 21 20 16 13 11 13 20 18 9 11 7 7 9 9 11 10 7 5 6 8 13 15 10 9 11 11 8 7 8 8 7 7 7 7 8 10 13 12 8 7 9 13 13 12 13 15 19 22 21 19 19 20 19 19 18 17 18 20 19 16
46 46 45 44 41 37 35 29 23 23 26 25 18 8 6 12 14 17 15 9 13 15 16 21 18 17 22 25 28 19 8 11 15 17 16 11 8 10 8 9 10 8 10 11 6 5 8 13 17 14 9 8 9 11 12 11 10 8 7 7 6 6 6 9 14 13 8 6 7 12 13 12 14 13 18 23 21 18 20 23 21 21 20 18 19 19 18 16
47 47 45 43 39 36 32 24 20 23 28 25 14 9 14 20 24 25 15 6 15 14 9 13 12 12 15 18 21 15 10 11 12 15 12 5 6 11 9 9 11 9 11 13 11 9 9 13 15 11 8 11 10 12 14 12 10 8 7 7 7 7 6 7 10 10 8 7 7 12 13 11 12 10 16 25 23 19 22 25 23 22 22 21 21 20 18 19
48 48 44 42 38 34 29 18 18 25 29 23 13 14 22 25 27 25 11 3 10 11 4 5 4 5 8 8 9 9 9 10 11 14 12 6 6 9 10 10 11 10 11 16 16 14 10 5 9 13 12 13 12 12 14 11 9 11 12 10 8 10 11 10 8 5 5 7 7 11 9 7 10 9 11 19 21 20 21 23 21 19 21 20 20 20 20 21
49 47 43 40 34 32 26 13 16 29 28 17 13 22 27 27 29 22 8 2 5 6 3 0 1 2 5 4 5 5 7 9 11 13 10 7 7 8 9 7 9 11 13 17 17 14 13 6 12 17 15 14 13 12 13 12 8 10 15 15 13 12 13 13 9 5 4 6 6 10 7 5 8 11 12 14 16 18 19 20 20 18 18 18 17 18 19 20
49 46 42 36 30 32 23 7 16 30 21 11 17 29 30 29 33 22 5 1 4 5 3 4 2 8 13 9 7 2 4 6 10 18 16 11 9 6 7 6 6 10 11 12 11 8 10 9 10 15 16 16 15 12 13 13 8 9 13 15 15 14 15 13 8 5 4 5 6 10 10 5 6 10 14 16 16 18 19 20 22 19 17 17 17 17 18 18
48 45 41 31 26 28 16 6 20 24 10 11 25 33 31 32 34 20 3 1 3 5 6 6 5 10 16 17 13 1 3 7 6 15 18 17 11 6 9 9 6 8 8 7 8 7 10 13 12 14 16 15 14 12 13 15 10 8 9 12 15 16 18 15 8 5 5 4 5 7 10 6 5 10 14 19 19 17 18 19 20 19 18 19 18 18 19 19
47 44 39 28 21 21 14 12 20 15 11 21 30 32 33 36 30 11 3 1 4 5 4 5 10 12 15 20 15 3 5 11 7 5 11 19 14 5 9 11 9 8 9 9 9 7 10 16 16 15 14 12 13 14 14 16 12 7 8 12 14 16 17 13 7 7 6 4 6 6 7 5 5 9 11 17 21 18 18 20 19 19 19 20 20 20 21 21
47 42 35 25 17 14 14 16 16 14 20 28 29 33 37 33 17 3 4 1 2 5 3 6 12 12 15 20 15 8 10 10 8 8 7 16 15 8 6 8 10 8 10 13 11 5 7 13 15 14 12 10 12 14 12 14 12 7 8 10 12 14 15 10 8 7 6 5 7 6 6 5 4 7 9 12 16 17 17 19 20 20 21 20 20 21 21 20
47 40 32 24 17 13 15 19 18 18 25 28 30 37 35 20 4 4 3 1 1 5 5 5 10 13 18 20 14 13 14 10 11 14 7 7 11 10 6 5 8 8 8 12 12 9 7 8 12 14 12 9 10 12 13 14 12 8 8 9 9 10 9 7 6 5 5 6 8 9 9 7 5 5 8 10 14 18 17 16 18 19 21 22 20 20 20 19
46 37 26 19 16 13 11 13 19 23 25 28 32 32 20 7 4 3 2 2 2 5 7 8 12 15 18 16 12 14 17 12 13 16 12 5 6 9 5 5 7 6 6 7 9 11 11 9 9 11 13 11 9 10 13 14 13 10 7 7 7 5 4 4 4 4 6 6 7 9 9 7 5 5 8 11 16 22 20 18 19 20 21 22 20 19 20 19
45 33 22 15 13 13 10 13 21 24 24 28 27 16 5 3 3 2 1 4 4 5 8 12 16 16 16 12 8 13 15 12 12 14 12 9 4 7 9 6 5 7 8 6 5 7 11 12 8 8 14 16 11 8 9 12 13 10 7 6 6 4 3 5 4 4 5 6 6 8 8 5 6 6 8 11 13 19 21 20 22 23 22 21 20 19 18 17
43 29 19 12 11 15 15 17 20 20 22 25 17 4 3 4 2 2 3 4 4 5 7 10 15 16 15 11 9 13 10 7 14 15 12 13 10 4 11 10 7 8 8 6 4 5 8 11 12 11 11 14 15 8 6 9 10 11 9 7 6 5 5 6 5 3 4 6 6 7 6 4 5 6 7 10 11 13 17 20 23 24 23 22 21 20 18 18
40 26 16 10 10 13 14 16 17 16 19 17 8 3 4 3 0 3 4 3 4 7 7 10 14 13 11 10 11 14 9 6 16 17 11 12 12 6 6 10 9 7 5 4 5 6 8 8 12 15 7 9 16 12 8 9 9 11 10 8 6 6 6 5 4 4 4 4 5 4 5 4 5 5 7 11 10 12 15 16 19 22 22 21 20 19 18 18
38 24 13 10 9 9 11 14 15 11 9 7 5 3 3 2 2 2 2 3 5 7 9 10 12 10 9 8 9 13 9 7 15 14 10 11 9 8 8 5 2 3 3 3 3 5 9 8 7 12 8 9 15 14 10 10 9 10 9 7 7 6 5 3 4 4 4 2 4 4 4 4 5 5 5 6 7 11 13 11 15 19 20 19 18 18 18 18
39 25 10 7 9 11 13 16 14 9 4 5 4 2 0 2 2 1 1 4 4 7 9 8 7 8 8 7 7 13 11 8 12 11 8 9 8 7 10 7 10 13 8 3 4 2 6 7 4 9 13 13 14 13 13 11 7 6 9 9 7 6 6 4 4 1 5 4 5 3 3 4 2 5 6 5 5 8 10 10 15 18 18 19 18 18 18 18
37 25 11 7 16 21 23 22 19 14 3 6 2 2 2 2 2 2 2 4 3 4 6 5 5 6 9 8 7 14 14 8 10 10 8 9 7 8 11 9 12 16 13 8 4 3 3 6 6 9 15 16 14 12 13 13 8 6 9 9 6 5 4 4 2 2 3 4 4 4 6 4 3 4 7 7 7 8 9 11 15 17 18 19 19 18 19 19
29 21 10 6 22 33 33 29 22 12 3 5 2 4 1 1 1 1 3 4 3 3 4 3 4 5 8 9 8 13 14 8 9 9 8 7 4 9 11 7 10 16 18 14 4 3 6 5 7 9 14 14 13 12 11 13 13 10 8 8 7 5 6 5 4 4 4 4 3 5 7 5 5 5 6 8 11 11 10 11 15 18 18 19 19 20 22 21
22 12 4 10 31 40 39 31 17 3 4 2 3 3 2 1 1 3 5 5 3 3 4 3 4 5 6 9 9 10 10 7 9 8 5 6 6 8 11 9 12 18 21 16 6 5 6 4 4 8 10 10 11 10 9 12 14 10 7 9 8 5 5 5 4 4 4 4 4 3 4 5 5 6 9 12 14 14 12 11 15 19 20 18 18 19 20 20
16 5 3 16 36 42 38 25 7 3 3 2 3 1 3 2 3 5 6 6 3 2 4 4 5 5 6 9 9 8 7 6 7 7 5 7 9 8 9 12 15 20 20 13 7 7 6 2 3 7 8 5 8 9 12 13 11 8 8 10 9 4 3 4 3 3 5 3 4 4 3 6 7 7 12 15 14 15 14 12 15 19 21 21 20 19 18 18
10 1 4 20 36 40 31 13 4 3 0 2 0 2 3 3 4 6 6 7 4 3 4 4 5 5 6 7 7 7 7 5 5 5 5 6 7 6 8 16 17 18 17 12 8 8 6 3 5 7 6 6 7 8 14 15 10 8 7 8 10 6 5 6 5 4 4 4 4 5 4 7 8 7 11 15 14 15 16 13 14 18 23 22 21 21 20 19
4 1 12 24 33 35 20 4 4 5 1 4 7 4 3 3 4 6 7 7 5 4 4 4 4 5 5 5 7 7 6 4 4 4 4 6 7 7 11 18 17 14 13 10 8 9 7 3 5 8 6 9 13 11 11 15 13 9 7 7 10 8 6 8 7 5 5 4 3 3 3 6 7 7 10 14 14 15 17 13 12 17 21 22 21 21 20 20
1 5 18 24 29 27 10 4 6 6 2 8 10 8 6 4 5 7 7 6 4 3 3 4 3 4 4 5 7 8 5 3 3 3 5 8 8 9 14 17 16 13 10 7 6 9 8 3 2 7 7 9 14 13 8 12 14 10 7 7 9 10 9 7 6 6 5 5 4 2 4 7 7 5 8 12 14 14 15 14 14 17 19 20 21 20 19 20
2 5 10 17 27 21 6 4 7 5 6 10 10 10 9 5 4 6 7 6 4 2 2 3 2 3 4 5 7 8 6 3 2 3 5 7 7 9 14 15 15 12 7 6 7 7 6 4 3 5 5 4 7 8 6 8 11 10 8 9 12 14 12 6 4 5 4 7 7 4 4 8 7 5 4 8 13 14 14 13 15 18 18 18 19 19 19 19
4 3 4 11 20 13 6 5 5 4 8 11 10 10 10 7 3 4 7 6 4 4 2 1 1 3 4 5 7 9 7 2 1 4 5 7 7 8 12 15 16 12 9 12 12 6 4 4 3 3 3 4 5 4 3 3 6 8 11 14 14 15 15 8 4 5 4 7 7 5 6 9 8 8 9 6 11 14 11 10 13 17 20 19 18 18 18 17
3 2 2 6 8 5 5 6 6 4 6 8 7 8 10 9 5 3 4 3 4 5 4 2 1 2 4 6 6 8 8 4 3 4 6 7 7 6 10 16 17 14 13 13 11 5 3 5 6 7 8 7 7 8 9 8 7 9 15 17 14 14 15 10 5 5 6 5 5 8 9 8 9 8 10 7 4 10 9 9 11 15 19 19 17 17 17 16
1 3 3 4 3 3 5 6 7 6 7 7 5 6 8 10 8 4 2 2 4 5 3 1 1 2 4 6 6 6 8 7 6 6 7 7 7 8 12 14 13 12 12 10 8 5 3 5 8 10 12 13 13 16 17 13 11 13 16 18 15 13 14 12 9 7 6 6 5 9 8 7 9 9 8 7 1 7 9 10 11 14 17 18 18 18 19 18
2 2 4 4 2 3 5 6 9 9 9 8 4 4 8 9 9 8 4 5 7 5 2 1 2 4 5 5 4 5 7 6 5 6 5 5 7 9 10 10 7 7 12 10 6 5 3 5 8 12 17 20 17 16 16 11 10 11 13 19 17 15 15 14 11 8 8 8 8 9 8 9 9 8 7 6 2 3 6 9 11 14 16 18 19 20 20 19
3 2 3 4 2 4 5 7 10 10 10 8 4 4 7 8 9 9 6 7 7 5 4 4 5 6 6 3 3 4 4 4 5 6 4 4 7 7 7 7 5 6 12 11 7 4 2 5 9 14 19 20 15 11 10 8 8 9 8 19 19 16 16 13 9 9 8 8 9 7 7 7 6 6 5 2 1 1 1 4 7 12 17 17 19 20 20 19
2 2 2 3 1 4 5 5 6 6 7 6 4 4 6 8 9 9 8 7 7 6 6 8 10 9 5 3 3 4 4 5 8 10 7 5 5 3 1 3 5 8 11 9 6 4 2 4 11 14 12 11 9 9 9 9 7 7 2 10 14 15 17 13 9 8 6 4 4 6 5 1 4 4 1 4 6 5 4 6 7 10 15 18 18 19 19 19
3 2 1 2 3 4 3 3 3 4 5 3 3 4 7 9 9 8 7 7 6 7 9 12 14 10 4 3 4 6 6 8 11 14 12 9 7 3 3 3 6 9 9 7 7 5 3 4 9 10 7 7 9 12 13 13 5 10 13 9 1 8 11 7 3 2 0 2 6 8 6 2 2 1 7 9 9 10 8 7 7 6 10 16 19 19 18 18
5 3 1 0 3 3 2 3 2 3 3 2 5 7 7 10 10 6 4 5 5 7 9 10 11 7 3 4 5 6 10 12 14 15 13 12 10 6 5 7 9 8 6 6 8 6 3 4 6 7 6 7 10 14 15 12 5 9 11 14 9 7 12 10 10 13 10 1 5 5 5 4 3 5 12 12 12 13 10 7 6 6 7 9 11 12 12 12
Wind_Direction
354 352 352 351 351 352 351 348 346 346 349 350 350 346 342 343 343 344 344 340 337 333 330 328 326 323 316 314 311 309 316 309 301 284 239 254 252 238 226 215 198 180 178 180 166 165 173 189 203 197 189 184 199 220 215 221 226 223 207 220 244 239 227 212 182 151 154 171 190 214 160 138 182 206 204 184 153 145 149 142 134 116 112 128 135 143 147 149
357 356 355 354 352 352 352 351 351 350 351 351 350 348 345 345 344 345 344 341 338 333 330 327 323 320 314 314 311 314 320 307 296 267 253 261 263 250 233 222 219 192 183 195 192 173 171 192 198 188 185 188 198 208 207 207 209 218 201 209 235 227 223 213 159 146 152 168 173 201 180 157 203 205 178 158 154 151 144 136 131 120 118 124 135 145 148 151
358 355 354 353 351 351 351 352 351 349 350 350 349 348 347 346 347 345 344 342 339 335 330 326 324 320 316 313 313 324 316 311 300 260 267 275 261 251 233 217 216 211 194 193 189 180 183 188 186 181 182 205 215 207 205 204 203 218 210 218 237 227 239 246 189 155 156 164 166 188 187 187 208 192 166 157 157 161 152 145 142 137 135 136 142 147 150 156
356 355 355 355 354 353 353 352 349 348 348 348 347 347 346 346 346 344 344 344 342 339 332 329 326 320 318 318 319 328 308 306 277 245 283 323 261 242 220 209 205 206 202 193 187 184 189 185 179 185 187 206 224 217 218 217 201 208 208 223 236 215 235 246 217 148 154 161 169 187 189 197 195 168 168 160 159 173 163 159 154 147 146 145 147 151 156 160
356 357 357 356 355 354 352 351 349 349 348 347 346 345 345 346 346 345 345 345 344 340 334 331 326 321 320 324 344 344 320 308 275 232 348 353 279 229 202 196 195 198 195 190 189 188 198 190 175 193 203 212 213 217 230 223 214 235 226 231 240 205 221 243 198 140 156 152 161 182 186 188 171 165 177 167 172 184 165 161 152 149 151 151 153 155 160 162
360 359 358 356 355 353 352 351 349 349 348 346 346 345 345 344 345 344 345 344 344 339 334 331 325 324 325 335 85 114 202 274 297 252 99 27 7 208 185 182 187 192 188 184 185 187 201 200 186 193 202 216 211 216 229 220 215 242 249 240 239 222 225 242 165 155 163 149 158 176 184 169 165 193 184 176 187 173 156 152 149 152 153 153 155 156 161 165
1 359 358 356 354 352 351 350 348 348 347 346 345 344 343 342 343 343 343 342 341 338 332 329 324 325 343 76 119 126 87 263 275 256 224 338 344 212 175 177 179 181 182 179 177 184 193 196 200 197 200 213 214 222 232 227 222 232 250 249 239 222 220 221 178 171 163 169 169 145 171 182 187 206 180 182 186 146 145 144 147 152 151 153 156 161 165 165
1 359 357 355 353 352 350 348 347 346 346 345 343 342 341 341 342 341 341 339 338 336 328 325 327 325 346 125 152 248 216 255 270 277 259 275 294 201 168 174 176 176 178 179 179 182 186 194 202 198 205 212 211 222 227 230 231 231 241 248 246 225 216 209 189 180 166 177 153 121 175 209 201 193 170 179 159 139 140 141 148 149 152 159 160 163 165 165
1 358 357 355 352 351 349 347 346 345 345 344 341 340 339 340 341 340 339 336 334 331 322 318 322 331 134 155 268 290 244 257 297 316 278 265 252 175 165 168 175 176 177 184 184 181 183 194 203 205 212 215 215 224 225 225 229 228 235 243 245 230 211 198 190 188 177 182 157 143 193 228 203 171 172 181 149 141 141 143 150 151 157 164 164 165 166 167
360 358 356 354 352 350 348 347 345 344 343 341 339 338 338 340 340 338 336 334 333 326 314 313 313 27 137 178 183 247 253 280 20 13 271 231 183 170 167 169 176 177 178 186 187 189 193 194 197 207 230 231 220 222 224 226 229 229 237 244 241 232 211 194 194 196 184 193 178 157 184 212 186 162 193 190 146 143 143 148 153 155 161 164 166 167 167 170
359 357 355 353 352 350 348 347 345 344 342 340 338 336 338 339 338 337 335 333 331 318 299 277 280 165 159 169 172 224 252 160 51 26 11 221 184 174 174 175 176 178 181 183 194 199 200 206 200 200 226 229 227 233 231 231 241 246 245 255 250 237 220 203 199 199 183 196 192 160 167 183 176 177 201 169 147 147 147 151 157 159 163 166 167 167 167 172
358 356 354 353 351 349 349 347 346 344 342 339 337 336 338 338 337 337 334 333 330 313 289 229 200 156 153 220 222 228 244 210 281 333 329 250 199 191 187 182 179 182 182 177 202 204 204 213 211 213 226 209 220 245 242 228 235 248 247 260 263 250 227 210 204 200 185 193 188 156 156 176 181 193 189 160 149 151 152 153 159 163 164 168 170 170 169 171
358 356 354 352 350 349 349 348 347 345 342 339 337 337 338 338 339 337 333 334 326 301 271 190 182 170 153 201 239 244 265 279 290 304 295 252 231 220 200 190 186 187 185 183 197 202 207 214 210 231 251 246 229 237 262 245 229 241 242 241 256 263 237 212 206 197 188 203 181 161 177 186 182 186 166 155 151 150 154 158 162 165 166 169 171 175 175 171
357 356 354 352 350 350 350 349 348 346 342 338 338 338 338 340 340 335 334 335 320 293 240 174 161 162 176 256 264 268 283 285 284 281 261 248 249 234 213 199 193 191 190 191 198 201 208 215 215 237 257 260 261 266 272 268 243 241 248 240 225 238 250 215 205 193 190 212 181 167 214 200 178 186 167 157 156 154 158 164 165 167 168 169 170 176 181 177
356 355 354 352 351 351 351 350 348 347 342 337 338 339 338 342 340 332 337 346 342 330 130 157 164 160 237 269 275 291 303 284 270 265 252 245 238 215 208 201 196 197 197 201 206 208 209 211 213 235 254 253 257 264 260 265 268 243 240 254 217 205 255 226 205 192 187 210 186 174 209 191 178 185 174 168 164 160 163 167 168 170 170 170 171 176 184 183
356 355 353 353 351 350 350 349 348 347 343 338 339 340 342 348 342 334 342 6 8 2 131 138 177 191 275 275 287 305 295 260 273 277 256 234 227 216 200 195 198 200 200 207 211 216 215 206 206 226 242 250 244 235 240 266 266 238 209 237 235 200 224 235 213 197 190 197 195 190 190 166 183 181 173 173 169 164 165 169 171 172 172 174 173 176 183 185
356 353 353 353 351 350 348 348 348 347 344 340 342 344 349 357 341 333 0 42 4 342 168 151 179 188 251 276 298 310 292 308 315 318 294 238 224 223 202 186 195 196 196 207 208 214 218 204 208 222 226 238 231 193 207 237 237 243 213 224 245 214 203 216 231 214 195 191 199 202 197 179 173 168 171 176 170 166 169 171 174 174 174 178 178 177 182 186
355 352 353 353 351 348 347 348 347 347 345 343 347 351 356 360 341 330 81 40 354 322 215 230 186 181 264 273 294 301 304 320 320 314 305 263 222 222 216 193 186 184 187 204 203 204 207 198 204 225 229 223 216 197 206 219 210 219 214 219 248 230 218 215 220 226 201 198 204 203 208 203 159 157 171 177 170 170 174 175 176 175 175 178 179 180 182 187
354 353 353 353 350 346 345 347 347 349 348 348 358 1 1 3 351 346 107 15 344 299 259 251 189 218 282 289 282 284 297 306 306 302 291 262 215 212 217 209 189 175 179 192 195 194 190 190 200 218 226 216 214 211 212 215 199 207 209 219 238 232 234 228 225 226 206 202 209 204 209 205 164 161 169 175 174 175 177 176 176 175 175 177 180 183 183 188
355 353 353 352 349 345 345 347 349 353 353 355 3 5 3 4 360 11 350 321 284 255 252 250 234 249 273 284 280 286 306 306 289 285 281 270 214 193 202 208 190 180 188 190 189 190 184 199 216 217 218 214 216 218 214 218 226 231 226 230 238 238 240 234 237 234 210 200 211 208 211 203 180 172 172 175 177 177 176 175 179 177 175 177 181 186 186 190
355 354 354 351 348 346 346 348 353 358 357 1 8 13 14 5 357 323 321 302 262 248 249 255 247 249 257 262 270 287 320 313 288 279 276 274 232 185 184 187 187 194 194 185 180 184 189 215 225 218 212 211 209 213 216 220 231 238 237 239 241 236 241 233 235 237 206 201 220 209 211 211 198 183 175 176 177 178 176 176 180 180 178 179 182 186 188 189
355 355 353 351 349 346 346 351 0 360 360 6 13 23 7 351 341 324 322 308 280 265 252 260 255 250 254 254 262 272 285 283 290 286 269 260 225 197 180 181 192 199 187 181 182 184 203 227 226 210 200 207 200 202 213 223 229 236 238 243 244 233 251 248 239 240 210 201 224 204 206 218 211 189 172 175 179 181 179 178 181 179 179 181 183 186 186 184
355 354 353 352 350 347 345 353 4 2 360 360 355 354 349 339 336 333 330 298 295 294 259 259 255 248 258 258 260 257 241 246 265 273 260 234 218 201 190 193 194 198 188 185 191 188 204 227 218 197 194 207 205 198 203 217 228 232 233 234 242 232 238 251 243 245 226 215 214 198 202 216 213 194 172 177 180 180 181 183 183 179 180 183 183 183 182 181
354 354 354 352 350 348 347 353 2 359 354 349 341 342 343 335 336 340 336 256 296 304 263 247 239 241 267 274 259 229 226 230 230 258 252 210 208 198 201 203 191 204 202 190 196 204 220 217 173 187 206 207 209 204 196 207 220 227 232 229 236 235 232 240 248 274 269 248 220 190 197 221 208 189 177 181 180 179 183 184 184 183 183 182 180 182 182 182
353 353 353 351 350 348 348 355 355 350 344 339 343 340 337 333 334 339 340 304 297 276 242 254 111 342 324 293 259 221 236 243 225 246 247 199 211 202 200 206 195 210 206 192 196 213 231 209 159 185 206 208 214 212 198 200 208 222 231 229 230 239 241 243 247 268 287 278 240 186 187 240 215 188 179 180 181 181 182 182 183 187 185 180 179 183 184 184
352 352 352 350 349 348 352 3 340 341 337 329 337 333 330 329 330 333 346 354 300 270 317 354 333 356 357 337 319 273 247 272 227 233 244 236 241 223 202 206 205 213 204 193 200 216 226 210 181 189 197 205 216 219 207 199 201 220 223 226 231 240 248 250 245 235 232 259 250 198 189 211 218 199 182 176 182 185 184 184 185 185 184 182 182 184 184 184
350 351 351 346 347 351 353 325 329 337 331 319 330 328 325 325 326 329 4 88 311 317 348 348 329 351 351 334 336 54 221 304 248 223 229 225 238 256 225 206 197 214 192 185 214 211 200 201 203 200 196 202 211 218 209 197 206 221 202 214 231 237 245 249 247 238 236 266 283 226 195 180 196 205 186 176 182 186 187 190 189 185 183 184 186 184 183 184
349 350 350 344 344 348 337 316 326 327 314 320 324 324 324 324 323 329 77 72 328 347 360 338 331 337 340 336 343 6 294 314 311 252 216 208 212 237 238 213 200 213 193 198 217 190 185 199 203 205 203 204 209 213 204 197 213 218 179 202 226 237 244 247 245 252 254 272 295 260 205 190 206 206 188 178 183 188 189 191 192 189 185 186 187 185 185 185
348 348 350 343 336 339 330 319 316 310 322 326 322 323 325 323 323 36 89 8 350 13 349 329 338 338 341 341 344 353 335 321 315 308 230 202 201 206 244 220 201 218 214 218 224 188 188 198 196 207 216 210 211 213 202 200 214 210 192 206 218 232 241 239 233 242 245 241 254 249 216 220 247 212 187 179 185 189 191 192 193 191 188 188 187 186 186 186
348 346 349 344 332 330 325 315 316 325 332 330 324 326 326 324 353 78 35 337 2 354 340 346 349 343 345 343 338 350 346 330 335 335 303 214 200 204 244 240 210 226 229 227 228 223 225 200 189 207 222 211 204 209 206 206 208 199 205 222 225 234 241 236 226 215 220 239 240 233 217 215 250 236 195 184 186 186 189 193 193 192 190 189 188 186 185 184
348 345 347 345 331 323 313 308 325 336 333 327 326 328 329 339 72 86 22 350 305 339 353 354 349 345 346 340 329 340 341 337 356 357 337 299 208 196 219 229 212 219 239 242 230 227 234 224 198 202 213 208 198 204 206 205 206 200 202 217 229 256 266 245 222 190 205 240 242 223 215 210 233 250 212 199 192 185 186 190 190 192 191 191 190 186 185 184
349 346 342 342 328 311 293 294 316 328 328 325 325 327 348 26 42 96 319 316 319 5 8 349 345 342 331 326 334 343 340 342 358 359 344 327 278 205 201 203 195 204 225 238 226 220 226 229 224 208 208 206 202 202 203 202 203 204 204 200 203 226 244 230 221 203 207 238 235 197 196 220 231 237 218 210 206 193 188 187 188 190 189 189 190 186 184 184
349 345 335 336 319 299 295 301 314 325 323 323 324 331 72 56 34 8 311 318 337 349 355 344 337 330 323 333 2 354 343 355 0 355 348 342 335 250 212 206 188 197 214 214 208 215 222 227 227 222 210 202 206 202 190 199 197 198 204 195 187 196 208 220 228 223 205 236 238 181 180 237 247 247 218 203 212 203 196 192 190 190 187 186 188 185 183 183
350 347 333 328 315 304 306 312 325 327 316 321 337 12 45 73 311 328 325 323 321 324 347 343 327 325 339 356 10 3 355 359 358 353 350 348 349 343 264 226 202 207 223 204 200 208 219 226 216 219 209 181 203 209 182 182 191 201 203 190 193 197 191 197 210 212 199 239 252 188 185 205 202 233 217 196 202 202 202 198 188 191 189 184 184 182 181 183
351 351 336 320 322 331 333 325 330 330 315 338 13 15 48 112 256 310 326 313 315 332 346 337 327 336 354 357 6 9 3 349 350 350 358 355 340 348 342 292 271 352 322 245 237 212 224 239 209 212 218 186 200 208 184 174 191 204 195 187 208 197 166 179 216 196 150 191 252 206 200 212 201 248 250 210 206 206 206 186 172 189 191 180 180 182 183 185
352 356 346 328 346 352 339 328 325 323 345 44 30 342 150 174 223 246 312 324 323 338 341 337 344 347 347 349 354 1 359 348 351 351 355 344 323 354 10 3 22 30 30 346 294 259 232 244 206 196 217 216 208 201 191 186 181 189 197 202 199 167 156 199 248 238 128 172 245 232 248 278 259 278 274 243 229 219 206 171 167 184 184 177 181 184 185 186
350 349 333 342 7 354 338 332 320 311 6 81 50 281 238 185 187 213 313 322 298 338 349 345 0 352 344 345 344 355 357 351 0 359 340 325 326 16 16 1 22 29 21 2 287 284 308 265 235 203 210 219 217 209 206 198 169 165 201 196 146 129 166 176 206 257 160 186 256 259 245 242 195 247 260 237 233 233 207 176 175 179 175 178 184 185 187 186
342 333 307 338 0 350 345 341 322 302 76 87 286 281 295 170 210 302 356 334 302 3 10 340 2 358 342 340 340 353 358 357 1 353 335 327 341 25 20 354 6 15 3 352 311 297 338 297 253 228 213 207 206 212 218 210 195 186 187 169 145 171 199 173 175 205 187 192 253 276 255 229 197 219 233 220 226 234 215 179 176 179 176 180 185 185 187 184
347 334 290 356 355 350 348 343 323 296 90 65 260 266 288 256 313 6 23 14 358 15 10 352 5 356 338 341 342 352 3 2 352 343 338 343 328 356 23 10 347 355 357 352 333 315 329 312 267 254 234 206 193 201 214 212 206 191 163 165 176 186 184 175 182 176 161 189 220 252 267 246 228 217 214 217 220 225 218 181 173 180 179 181 186 187 187 184
353 336 256 351 355 350 347 343 336 91 95 223 205 239 290 308 337 355 43 49 33 29 21 8 5 356 338 340 342 350 356 346 345 338 314 323 319 323 19 22 350 343 348 348 332 321 328 334 294 292 290 251 202 199 208 208 201 184 171 180 187 176 149 174 206 174 148 158 191 201 242 252 245 226 222 224 217 219 220 192 175 179 179 182 186 186 186 184
336 328 289 344 354 349 345 353 26 29 343 221 319 305 324 9 341 344 36 46 37 68 58 29 18 360 327 334 347 340 330 326 341 330 290 314 335 320 1 10 353 340 342 345 347 341 341 349 301 298 316 285 242 216 206 206 203 188 178 184 187 173 143 175 222 222 171 163 170 177 223 255 246 223 223 226 217 217 221 201 175 177 180 183 186 184 184 184
327 354 304 331 350 346 341 40 30 352 4 351 346 324 333 18 354 351 18 24 27 63 56 34 23 353 318 328 337 320 321 331 322 310 286 308 319 306 333 347 344 343 343 333 328 324 314 300 270 270 277 263 263 260 218 204 203 193 180 181 187 178 158 179 207 207 193 207 193 166 223 267 254 215 213 225 220 214 216 204 174 174 181 183 185 184 181 182
345 304 301 326 349 345 345 74 11 2 15 344 344 336 334 13 23 5 0 360 16 60 44 24 9 345 322 315 313 317 350 9 281 290 303 300 303 308 322 333 335 340 344 326 319 323 317 321 294 288 283 263 267 277 254 212 201 196 193 180 184 192 182 174 184 176 183 210 204 189 251 270 267 227 207 225 226 214 209 197 171 171 182 184 182 182 181 184
294 281 290 334 350 351 21 53 355 354 348 343 347 340 339 6 27 9 352 348 18 71 38 15 1 330 307 305 313 330 7 47 260 296 300 291 301 313 316 325 330 332 334 323 326 335 330 340 353 318 294 254 261 275 272 227 203 200 201 186 188 195 183 157 152 160 187 207 183 162 232 255 268 284 277 241 220 207 202 190 169 168 179 183 181 181 181 182
304 262 249 337 348 0 65 47 1 354 343 345 344 338 345 352 2 35 14 356 29 39 351 300 320 310 307 326 334 334 348 51 241 281 278 290 305 310 315 322 323 319 303 300 310 324 315 297 286 286 265 217 216 226 246 251 221 209 200 192 191 189 181 169 144 152 201 214 182 172 224 258 285 307 312 274 199 189 184 169 162 169 177 180 179 179 181 179
316 299 284 341 346 11 58 26 10 0 342 347 341 336 346 334 322 34 29 357 23 8 326 264 269 303 327 348 342 328 331 337 317 298 287 304 312 306 315 318 315 313 306 307 323 338 295 273 250 246 258 259 256 263 279 298 286 235 203 192 189 184 183 180 152 161 193 184 192 217 221 254 287 294 308 309 180 163 151 139 154 168 173 176 176 177 178 175
299 312 341 357 327 358 19 4 358 350 337 338 327 318 329 321 319 352 2 332 359 351 320 265 293 331 355 357 341 320 321 320 311 299 294 308 309 299 308 309 301 314 329 339 354 343 294 286 272 267 279 280 274 277 280 285 283 254 212 191 185 180 182 187 185 186 168 148 218 242 208 216 264 272 289 301 183 138 144 151 162 169 170 170 173 177 178 174
314 316 9 14 317 353 5 333 328 332 330 333 318 293 316 330 343 352 347 342 345 351 4 322 318 341 349 354 336 312 317 317 296 291 298 308 306 306 313 304 289 341 356 350 346 341 301 274 284 301 307 296 280 274 272 267 279 269 210 185 186 187 184 191 200 188 155 160 218 238 194 193 237 260 260 261 243 164 171 164 162 167 169 168 169 173 177 176
323 301 9 34 359 331 323 304 312 323 327 331 314 297 328 345 350 345 346 349 339 336 351 329 316 325 322 323 314 296 318 322 293 293 294 282 297 314 329 314 305 13 3 340 331 355 320 270 302 316 306 295 287 282 273 273 307 311 216 183 186 195 190 185 194 189 174 189 211 209 192 206 247 263 251 243 21 343 189 134 139 161 165 165 169 173 176 178
357 332 342 13 336 302 292 292 314 323 320 315 301 319 338 339 342 346 346 337 321 323 341 333 321 314 301 301 297 284 305 307 292 294 286 262 280 299 342 310 305 328 339 332 324 345 350 295 316 319 302 294 317 339 326 306 320 351 300 183 179 194 197 186 183 189 198 212 174 142 144 275 308 289 18 59 52 47 65 89 115 159 166 163 165 172 176 177
330 359 355 329 308 300 292 299 319 310 305 308 313 334 335 323 334 356 340 311 316 336 335 325 319 312 298 298 290 288 305 299 287 289 287 280 276 245 173 219 273 300 321 325 309 312 326 298 309 322 312 301 333 351 334 310 328 41 19 354 305 182 184 176 140 87 280 191 130 114 119 146 254 128 70 53 52 55 52 63 89 132 160 164 166 172 177 177
321 351 71 285 292 294 281 284 286 283 294 314 318 321 319 310 321 351 339 301 319 325 305 301 311 317 320 309 292 294 303 296 287 287 289 287 276 246 209 222 241 262 283 301 299 293 294 296 314 333 319 302 327 335 322 314 5 49 8 341 346 72 87 68 35 23 12 6 147 144 162 192 217 104 77 60 55 55 44 40 59 83 104 131 151 156 162 166
Height
821 819 817 815 812 810 808 806 804 802 800 798 796 794 792 790 788 787 785 783 781 779 778 776 775 773 772 770 769 768 767 766 763 766 761 740 736 746 748 749 750 753 756 758 761 763 765 767 767 768 772 774 776 774 773 772 771 779 789 799 801 797 791 781 775 775 775 777 777 774 775 783 788 787 782 776 775 773 776 776 775 775 774 777 781 786 790 794
820 818 816 814 812 809 807 805 803 801 799 797 795 793 790 789 787 785 783 781 780 777 776 775 773 771 770 769 768 767 766 763 762 760 746 731 734 741 744 747 749 751 753 755 758 759 763 765 765 767 771 775 774 772 774 770 770 780 787 795 795 786 776 766 765 768 768 772 773 771 772 777 781 779 771 774 780 775 780 782 779 781 781 781 783 787 791 794
819 817 815 813 811 808 806 804 802 800 797 795 793 791 789 787 785 783 781 780 778 776 774 773 771 769 769 767 766 767 765 764 760 748 732 728 730 732 737 743 746 749 750 752 754 756 759 761 762 766 771 775 772 771 774 770 769 775 781 793 785 771 766 759 758 761 760 763 770 771 769 773 774 767 764 772 779 777 781 783 781 786 785 785 785 787 791 793
819 817 814 812 810 807 805 802 800 798 796 794 791 789 788 785 784 782 780 778 776 775 773 771 770 768 767 766 766 766 765 764 752 733 726 727 726 725 730 737 742 746 749 751 753 755 757 759 762 765 771 777 772 771 774 769 769 770 774 782 770 761 766 758 753 755 755 758 764 766 767 771 764 759 763 769 779 781 778 774 774 779 781 783 785 786 789 792
818 815 813 811 808 805 803 801 798 796 794 791 790 788 785 784 782 780 778 777 775 773 771 769 768 766 766 765 766 765 766 763 741 724 726 725 723 724 725 732 739 743 747 751 753 755 757 759 762 766 772 776 774 774 772 763 763 768 766 765 758 759 765 755 750 752 752 755 760 762 765 765 758 759 762 766 777 777 768 766 767 770 773 776 780 784 788 790
817 814 812 809 806 804 801 799 796 794 792 789 788 785 784 782 780 778 777 775 773 772 770 768 766 766 765 765 766 765 765 756 732 724 726 723 722 723 724 730 736 741 746 750 751 754 757 758 763 769 772 773 775 773 768 759 760 770 765 756 754 756 758 751 748 749 748 754 761 760 758 755 759 764 760 761 767 761 755 758 762 766 769 772 776 781 785 789
816 813 811 808 805 802 799 797 794 792 790 787 785 783 782 780 778 777 775 773 772 769 768 767 765 765 764 765 765 765 766 749 726 724 725 722 724 723 725 730 735 741 744 747 749 752 755 759 764 766 770 773 772 768 764 759 758 768 766 756 752 750 752 748 746 747 745 751 755 753 754 756 764 765 758 759 758 752 751 754 759 765 768 773 777 780 783 786
815 813 809 807 803 800 797 795 792 790 787 785 783 781 779 777 776 774 773 772 770 768 767 765 765 764 764 765 764 764 763 741 721 724 724 723 725 724 727 731 735 739 741 744 745 748 752 759 762 762 769 770 766 764 761 762 762 763 763 754 749 747 746 744 744 746 745 747 750 754 758 758 758 757 757 758 754 750 751 755 760 765 770 774 778 781 783 786
815 812 809 806 802 799 796 793 790 787 785 783 780 778 776 775 774 772 771 769 767 766 764 763 764 763 764 764 764 762 748 727 720 724 723 724 725 725 727 730 735 737 739 743 742 746 751 755 757 756 764 763 759 760 757 765 767 757 754 750 748 747 742 742 744 744 744 744 748 759 764 757 750 752 759 755 751 751 751 757 761 765 771 775 777 780 782 785
815 812 809 806 802 799 795 792 789 786 783 780 778 776 774 773 771 770 768 766 765 764 762 763 762 762 765 762 765 759 732 720 724 722 722 725 725 726 727 728 732 735 738 741 742 744 745 748 750 749 756 757 755 757 754 760 758 748 748 747 745 745 740 740 743 740 742 742 744 757 765 757 748 754 764 755 747 750 754 760 762 765 771 773 776 778 781 784
815 811 809 805 802 799 795 792 788 785 782 778 775 773 772 770 769 767 765 764 762 761 761 761 761 763 763 762 764 751 724 720 723 721 725 727 725 726 726 727 729 733 736 739 740 740 741 743 742 747 756 755 753 754 751 748 747 744 745 748 744 743 741 739 742 740 741 744 740 748 759 755 751 757 761 752 747 750 755 762 764 766 770 772 775 777 780 782
815 811 808 804 801 798 794 791 787 784 780 776 774 771 770 768 766 765 762 761 760 760 760 760 761 761 762 764 757 735 719 720 721 722 727 728 728 726 725 726 726 729 732 736 738 737 739 739 740 751 752 749 754 758 749 738 741 743 744 754 751 744 746 741 739 738 740 744 736 743 764 766 761 760 754 747 747 750 756 763 765 767 770 771 774 776 779 780
815 811 807 804 801 797 793 789 786 782 778 775 772 769 768 766 764 762 760 759 758 758 758 759 760 760 763 759 738 721 719 721 721 722 724 726 728 727 727 727 725 727 728 730 733 734 737 737 741 748 744 747 754 749 740 733 739 745 744 754 756 755 754 741 736 737 740 740 730 745 777 778 765 756 749 746 748 754 760 764 766 768 769 772 773 775 777 778
814 811 807 803 800 796 792 788 785 781 777 774 771 769 766 764 762 760 758 757 756 757 758 758 760 760 763 749 723 719 721 720 721 719 720 724 725 726 727 727 727 727 728 729 730 732 735 736 741 745 742 746 747 739 739 741 742 746 749 752 757 767 761 739 733 738 743 738 725 745 777 776 763 755 746 745 748 755 763 765 765 767 768 771 772 775 777 776
813 810 806 803 799 795 791 787 783 780 777 773 770 768 765 763 761 758 757 756 755 757 756 759 759 760 763 745 721 718 719 718 719 714 717 722 723 724 725 727 728 727 728 729 730 732 734 737 743 749 746 741 743 748 752 752 747 748 759 763 759 764 760 740 730 734 742 737 726 744 770 769 761 755 744 742 747 753 761 764 764 766 767 769 771 773 775 774
812 809 805 801 797 793 790 786 782 779 776 772 770 767 764 762 760 758 757 755 756 756 756 759 758 760 761 740 719 716 717 716 715 713 716 719 720 721 722 725 726 727 729 729 730 732 733 738 743 746 746 745 748 755 759 762 759 753 760 768 761 760 761 748 734 728 732 737 733 741 759 762 755 749 741 739 745 752 759 763 763 764 765 767 769 771 773 775
811 807 803 800 795 792 789 785 781 778 775 772 769 766 763 762 760 758 757 756 757 755 756 757 756 760 750 726 718 718 715 714 714 714 715 716 718 718 720 724 725 727 728 728 731 732 733 738 742 743 745 748 748 753 766 776 772 762 760 764 759 755 758 754 743 729 725 736 739 739 747 751 745 742 741 739 742 751 758 761 761 762 764 764 766 769 771 773
810 806 802 798 795 791 787 784 781 777 775 771 768 765 763 763 760 757 757 757 756 755 756 755 757 759 740 721 723 720 714 715 713 713 715 714 715 716 718 721 721 725 730 733 733 733 736 738 742 749 749 748 747 751 767 771 766 765 764 764 761 753 753 753 745 731 726 735 740 742 746 745 740 738 741 739 740 748 753 755 756 757 761 763 764 767 769 770
810 806 802 797 794 790 787 784 780 778 775 771 768 765 763 761 758 757 757 757 758 759 757 752 753 751 734 722 720 716 715 716 713 710 710 711 713 714 716 717 718 724 734 740 737 733 736 741 746 753 751 746 743 744 753 754 752 757 757 759 760 755 751 747 739 726 724 736 741 743 744 743 742 739 738 738 738 745 750 750 754 755 757 760 763 764 765 767
810 805 801 797 793 789 786 783 780 778 775 771 768 763 762 762 761 760 757 757 758 755 750 744 744 741 732 726 719 716 717 714 713 709 705 708 709 712 715 717 720 725 732 738 739 731 733 747 750 746 743 739 738 738 742 744 744 748 751 754 754 753 750 740 734 723 719 736 742 737 738 739 739 736 733 734 736 742 748 751 753 754 755 757 759 761 761 762
809 805 800 796 792 788 785 782 780 778 775 773 769 767 770 772 773 769 757 752 747 744 742 736 736 736 729 725 719 721 724 717 712 707 704 705 705 712 716 716 725 731 729 731 735 729 733 748 742 732 735 734 734 736 738 742 744 746 750 753 752 752 747 735 729 721 717 734 740 733 737 738 734 733 731 731 737 741 743 747 750 750 751 752 754 757 757 758
807 803 799 795 791 787 784 782 780 778 776 774 771 772 775 775 777 774 764 755 740 733 735 729 730 731 723 721 720 724 732 727 718 706 701 704 705 711 713 715 726 730 726 728 734 738 743 741 728 725 729 730 732 733 737 742 744 747 748 752 755 749 745 736 725 719 718 732 739 734 739 738 727 726 728 729 733 735 734 736 739 741 746 748 749 752 753 756
806 802 798 794 790 787 784 781 780 778 775 774 774 774 775 774 773 771 769 765 742 724 727 726 726 726 721 721 720 724 731 730 725 709 699 704 706 707 710 715 724 726 726 728 733 743 745 729 718 723 726 729 734 732 736 742 743 747 747 752 754 745 747 747 732 722 720 724 730 732 736 735 726 725 726 724 723 725 726 727 728 731 736 738 740 743 748 753
805 800 797 793 790 787 783 781 780 778 776 775 776 775 774 772 770 769 768 768 754 732 723 722 722 723 722 721 719 723 725 722 720 708 696 702 706 705 707 711 720 724 722 722 726 733 731 717 713 722 724 727 734 733 736 743 745 744 742 746 748 741 742 742 733 727 725 722 720 728 744 741 729 733 732 724 720 722 724 725 728 728 728 730 735 738 741 744
804 800 797 792 790 787 783 781 779 778 777 775 775 773 772 770 768 770 769 770 763 739 722 720 722 723 720 719 719 719 720 716 711 703 694 697 702 704 706 706 713 722 720 718 724 727 722 712 710 720 725 726 732 733 732 738 745 745 737 734 737 736 735 733 732 734 742 743 723 726 760 759 733 732 735 728 727 727 725 727 730 730 728 731 735 737 738 739
803 800 795 792 791 787 783 781 780 779 777 774 774 771 770 769 767 767 770 778 768 738 725 727 726 725 720 719 717 716 723 716 701 696 694 694 695 698 707 706 704 714 715 715 720 720 715 710 711 719 723 725 730 732 726 728 744 746 730 723 728 731 732 732 735 740 750 750 724 717 750 760 741 733 729 726 730 730 726 726 726 726 727 729 731 733 734 736
803 799 796 792 790 788 785 783 782 780 778 775 773 771 769 767 766 765 770 781 767 737 731 734 730 729 725 721 716 720 728 714 695 690 688 692 693 692 705 707 705 709 705 713 724 714 707 712 715 716 720 725 729 728 720 720 737 738 720 718 726 727 729 730 735 742 741 737 727 716 727 746 747 734 722 721 729 731 729 727 724 722 724 725 726 727 728 731
802 799 796 792 790 790 788 786 784 780 778 775 771 770 768 765 765 765 772 780 763 740 740 740 731 730 727 721 718 722 722 711 706 696 679 686 692 692 703 704 705 707 699 710 724 708 700 710 714 714 720 723 720 717 712 714 727 725 713 715 720 721 723 725 733 740 735 738 745 728 720 743 748 727 716 720 727 733 730 726 724 721 721 721 722 723 723 724
801 798 796 792 790 790 788 786 784 780 777 773 771 769 766 764 763 766 776 779 763 748 744 740 733 733 731 725 720 721 717 712 715 700 681 684 687 689 700 697 699 706 699 702 712 705 698 700 702 709 716 716 711 707 705 711 718 713 709 713 715 716 718 721 732 736 736 748 755 735 724 743 746 726 721 727 728 730 726 719 716 715 715 717 717 718 719 720
800 796 795 793 790 789 788 785 782 779 775 772 772 768 764 763 765 777 785 777 766 757 747 745 745 743 741 736 726 722 720 717 713 701 689 685 684 688 693 690 693 702 701 698 702 700 693 689 692 698 702 701 701 702 700 704 707 706 710 717 719 720 717 722 727 730 745 758 748 730 721 733 743 729 718 720 716 714 715 714 712 710 710 712 711 712 714 717
798 794 793 792 790 789 789 785 780 777 775 774 772 767 766 765 770 791 793 772 766 764 752 752 754 749 749 748 739 728 724 720 716 715 708 695 690 693 696 697 698 705 710 706 703 700 695 694 692 687 687 690 696 700 698 696 699 705 713 720 730 733 727 731 732 734 758 762 737 722 715 724 741 729 709 703 696 693 700 706 708 708 707 707 705 706 708 710
797 793 791 791 789 789 788 784 779 777 776 775 773 770 773 776 782 797 792 772 772 772 762 760 758 754 753 750 747 740 733 730 725 726 725 714 704 696 698 704 703 713 723 716 710 706 699 696 690 684 680 682 694 704 703 699 699 708 716 724 742 750 746 751 750 746 757 750 725 716 717 724 730 712 696 695 689 686 686 689 694 697 700 701 701 702 703 705
796 791 789 789 788 787 785 783 779 778 777 775 775 773 776 788 795 795 787 780 780 773 766 766 762 758 754 749 751 747 741 739 734 730 727 722 716 701 693 693 695 708 717 714 715 714 707 697 688 688 683 675 685 702 710 709 705 710 716 725 743 754 760 766 758 749 750 737 717 711 717 727 721 699 686 685 682 680 677 677 680 683 688 693 694 696 700 702
795 791 789 787 787 786 784 783 780 779 778 777 778 778 783 798 798 789 785 784 778 770 768 769 765 760 757 756 758 754 749 746 738 737 735 730 730 722 707 694 690 696 702 706 711 712 718 712 690 685 684 676 679 688 696 701 704 705 702 711 727 734 744 755 752 748 745 732 718 714 720 726 718 695 677 671 670 670 670 671 673 676 679 684 689 693 698 700
794 790 788 786 786 785 783 783 780 779 780 779 782 785 791 800 796 787 786 780 774 772 771 768 766 765 762 762 763 760 760 758 745 743 745 741 742 740 729 713 701 705 712 716 709 700 711 708 681 673 674 672 677 677 675 689 703 699 691 705 717 711 715 729 732 728 728 729 723 716 716 709 696 681 667 665 668 666 667 670 673 677 677 681 689 693 695 697
793 788 787 786 786 786 784 783 780 779 779 781 791 794 790 790 788 784 780 775 774 775 774 772 769 771 770 767 766 763 762 761 755 752 752 749 744 739 738 732 726 731 737 741 730 710 710 701 675 671 672 666 670 670 667 681 696 696 696 703 699 689 696 717 725 715 716 734 729 712 710 702 691 684 669 667 673 669 669 673 674 676 677 682 688 689 691 693
794 790 788 787 787 787 786 783 780 779 778 784 796 794 783 780 779 777 773 772 773 772 776 781 777 775 776 773 770 767 764 763 762 762 760 754 746 740 740 740 737 739 742 748 743 720 715 708 679 670 675 665 659 664 664 664 673 689 698 691 682 686 693 705 725 726 727 742 730 709 710 709 706 701 678 669 676 673 671 673 674 675 677 682 684 684 686 687
798 794 790 788 788 786 783 780 778 778 779 786 794 788 780 777 774 771 771 770 771 772 778 784 780 777 779 779 775 770 771 774 773 772 766 758 751 743 744 745 739 738 738 741 741 724 719 719 688 666 670 662 652 666 676 664 657 670 678 672 679 702 708 706 720 731 737 744 733 715 711 707 705 700 683 674 675 670 669 672 674 675 677 679 680 680 681 682
801 796 791 788 787 783 779 778 775 775 780 788 793 787 779 776 772 769 769 769 772 775 779 783 781 779 779 779 778 774 777 781 780 778 772 765 758 747 746 749 743 740 739 737 739 730 722 725 704 669 660 659 656 668 682 674 660 660 666 667 673 689 700 702 707 715 727 738 735 725 719 708 693 681 674 672 667 662 664 669 672 672 672 674 675 676 677 679
805 802 794 788 786 781 777 774 772 776 783 786 787 783 777 775 772 769 768 770 772 775 780 783 782 784 783 779 779 778 780 782 782 783 777 769 765 752 745 751 750 743 740 737 739 734 724 728 721 689 668 669 666 664 667 669 667 669 675 677 677 680 687 693 697 697 708 726 732 731 729 709 678 661 660 661 658 654 654 660 666 666 665 667 668 670 674 676
811 808 797 788 788 783 776 775 777 780 783 782 781 779 776 775 774 771 769 770 772 773 777 781 783 786 785 782 782 780 779 780 781 785 780 770 770 762 749 751 756 750 743 740 740 739 735 738 737 717 698 687 669 651 648 653 659 666 672 674 675 680 687 702 710 698 692 707 715 720 725 700 662 649 650 648 649 647 643 649 658 659 659 661 661 663 667 671
816 812 798 790 791 786 780 783 787 787 787 786 784 779 775 773 774 775 773 771 773 774 776 779 783 785 784 782 782 779 778 781 783 784 780 773 773 770 758 755 759 756 752 750 746 741 739 741 741 728 707 687 665 646 642 644 647 654 662 664 666 673 681 699 713 702 692 698 696 702 714 689 650 641 643 639 638 638 636 640 650 654 654 654 656 658 661 665
821 814 799 793 795 789 786 793 795 795 796 792 787 781 776 774 776 777 776 775 776 778 780 782 783 784 784 782 780 777 777 782 784 781 780 776 772 768 763 760 760 758 757 756 749 741 736 736 740 730 701 674 659 648 642 639 643 654 659 657 660 666 668 676 687 688 693 698 695 705 716 686 645 635 638 634 632 631 631 634 642 650 650 650 653 655 659 662
822 816 803 798 797 792 795 805 807 805 802 796 792 788 781 777 777 779 780 778 778 780 783 784 783 783 783 780 777 775 777 784 786 781 779 778 772 768 764 763 763 761 760 758 751 746 745 745 750 744 712 684 674 669 660 650 647 653 655 653 654 657 661 667 673 680 690 692 691 706 714 682 643 632 633 632 630 629 629 630 635 643 646 647 650 652 655 659
822 816 805 801 800 797 802 810 812 812 808 802 799 794 787 783 779 778 781 780 778 780 783 782 781 782 780 779 779 776 775 782 786 782 779 777 773 768 765 764 763 761 758 754 747 747 751 750 753 750 728 707 698 690 679 670 658 648 646 649 650 652 659 668 675 686 694 688 686 696 696 672 645 633 632 631 629 627 628 630 632 636 639 642 646 649 652 657
823 817 810 806 803 801 806 809 812 815 812 809 806 798 793 792 784 778 779 781 779 778 780 780 779 780 781 781 783 782 778 778 781 781 779 778 775 770 766 764 762 758 753 749 744 746 751 748 745 743 732 716 706 692 679 677 672 657 645 646 650 651 655 662 674 686 686 683 686 685 676 668 654 640 636 634 630 628 630 634 634 634 636 639 643 647 650 654
824 819 815 816 813 809 812 814 814 816 814 811 810 803 798 796 789 782 780 780 780 778 779 780 779 782 784 784 785 785 780 778 779 779 778 777 775 770 766 763 761 756 750 747 746 746 752 751 740 731 724 712 703 692 678 674 674 660 645 644 648 650 654 661 671 675 672 681 689 675 667 672 661 642 639 637 633 630 629 631 634 633 634 636 640 645 649 653
824 820 818 821 821 820 823 821 817 816 813 811 810 805 801 798 795 792 787 783 781 781 782 783 782 782 784 784 786 786 782 781 781 779 778 778 775 771 768 762 758 754 751 750 747 746 753 752 737 727 721 706 694 687 675 667 664 652 640 640 644 647 653 660 664 663 663 673 677 664 664 670 656 640 639 636 634 633 628 625 628 629 630 634 639 644 649 652
824 823 821 822 824 825 827 824 820 818 815 813 811 806 803 801 800 797 793 790 788 784 784 786 785 783 782 781 784 785 785 786 785 779 776 777 774 773 773 767 757 753 755 755 748 746 752 748 735 731 725 704 688 679 668 661 658 648 637 634 638 643 649 653 658 660 658 659 657 656 662 663 651 643 641 634 631 632 628 625 627 628 630 634 639 644 647 650
827 827 825 825 827 826 825 822 821 821 817 814 812 807 803 803 802 799 795 796 796 790 786 788 786 782 781 780 782 783 782 783 783 777 772 773 772 773 777 775 765 759 760 759 752 748 751 747 736 734 726 704 686 676 666 660 656 649 643 637 635 639 645 650 653 655 658 659 657 659 665 662 652 645 642 636 632 633 633 631 631 630 630 633 638 643 645 648
828 828 827 829 828 824 823 822 822 824 821 815 812 809 807 805 803 802 800 796 795 794 791 790 787 782 780 780 780 781 778 776 776 771 765 765 765 765 769 770 767 766 766 763 756 750 752 749 740 736 732 710 689 682 675 660 650 654 662 658 647 642 645 652 656 658 662 664 662 664 668 664 653 645 643 642 640 640 642 638 634 633 631 632 637 640 642 645
828 827 827 829 828 824 823 823 822 824 821 814 811 809 809 806 801 803 806 798 792 793 792 789 786 783 782 782 779 777 774 770 768 764 759 757 755 755 759 760 760 765 767 766 761 752 751 751 744 743 739 715 693 691 684 666 665 681 689 680 665 655 655 664 673 674 672 668 665 665 663 658 651 645 648 651 649 649 650 645 641 638 635 636 638 640 643 645